Year,Month,Day,Hour,Minute,Value (Times are PST for temperature in C)
2012,06,25,00,00,11.30
2012,06,25,00,01,11.30
2012,06,25,00,02,11.30
2012,06,25,00,03,11.30
2012,06,25,00,04,11.30
2012,06,25,00,05,11.30
2012,06,25,00,06,11.30
2012,06,25,00,07,11.30
2012,06,25,00,08,11.30
2012,06,25,00,09,11.30
2012,06,25,00,10,11.30
2012,06,25,00,11,11.30
2012,06,25,00,12,11.30
2012,06,25,00,13,11.30
2012,06,25,00,14,11.30
2012,06,25,00,15,11.30
2012,06,25,00,16,11.30
2012,06,25,00,17,11.30
2012,06,25,00,18,11.30
2012,06,25,00,19,11.20
2012,06,25,00,20,11.30
2012,06,25,00,21,11.30
2012,06,25,00,22,11.30
2012,06,25,00,23,11.30
2012,06,25,00,24,11.30
2012,06,25,00,25,11.30
2012,06,25,00,26,11.30
2012,06,25,00,27,11.30
2012,06,25,00,28,11.30
2012,06,25,00,29,11.30
2012,06,25,00,30,11.20
2012,06,25,00,31,11.20
2012,06,25,00,32,11.20
2012,06,25,00,33,11.20
2012,06,25,00,34,11.20
2012,06,25,00,35,11.20
2012,06,25,00,36,11.20
2012,06,25,00,37,11.20
2012,06,25,00,38,11.20
2012,06,25,00,39,11.20
2012,06,25,00,40,11.20
2012,06,25,00,41,11.30
2012,06,25,00,42,11.30
2012,06,25,00,43,11.30
2012,06,25,00,44,11.30
2012,06,25,00,45,11.30
2012,06,25,00,46,11.30
2012,06,25,00,47,11.30
2012,06,25,00,48,11.30
2012,06,25,00,49,11.30
2012,06,25,00,50,11.30
2012,06,25,00,51,11.40
2012,06,25,00,52,11.40
2012,06,25,00,53,11.40
2012,06,25,00,54,11.40
2012,06,25,00,55,11.40
2012,06,25,00,56,11.40
2012,06,25,00,57,11.40
2012,06,25,00,58,11.40
2012,06,25,00,59,11.40
2012,06,25,01,00,11.40
2012,06,25,01,01,11.50
2012,06,25,01,02,11.50
2012,06,25,01,03,11.50
2012,06,25,01,04,11.50
2012,06,25,01,05,11.50
2012,06,25,01,06,11.40
2012,06,25,01,07,11.40
2012,06,25,01,08,11.40
2012,06,25,01,09,11.40
2012,06,25,01,10,11.40
2012,06,25,01,11,11.40
2012,06,25,01,12,11.40
2012,06,25,01,13,11.40
2012,06,25,01,14,11.40
2012,06,25,01,15,11.40
2012,06,25,01,16,11.40
2012,06,25,01,17,11.40
2012,06,25,01,18,11.30
2012,06,25,01,19,11.30
2012,06,25,01,20,11.30
2012,06,25,01,21,11.30
2012,06,25,01,22,11.30
2012,06,25,01,23,11.30
2012,06,25,01,24,11.30
2012,06,25,01,25,11.20
2012,06,25,01,26,11.20
2012,06,25,01,27,11.20
2012,06,25,01,28,11.20
2012,06,25,01,29,11.20
2012,06,25,01,30,11.20
2012,06,25,01,31,11.10
2012,06,25,01,32,11.10
2012,06,25,01,33,11.10
2012,06,25,01,34,11.10
2012,06,25,01,35,11.10
2012,06,25,01,36,11.10
2012,06,25,01,37,11.10
2012,06,25,01,38,11.10
2012,06,25,01,39,11.10
2012,06,25,01,40,11.10
2012,06,25,01,41,11.10
2012,06,25,01,42,11.10
2012,06,25,01,43,11.10
2012,06,25,01,44,11.10
2012,06,25,01,45,11.10
2012,06,25,01,46,11.10
2012,06,25,01,47,11.10
2012,06,25,01,48,11.10
2012,06,25,01,49,11.10
2012,06,25,01,50,11.10
2012,06,25,01,51,11.10
2012,06,25,01,52,11.10
2012,06,25,01,53,11.10
2012,06,25,01,54,11.10
2012,06,25,01,55,11.10
2012,06,25,01,56,11.10
2012,06,25,01,57,11.00
2012,06,25,01,58,11.00
2012,06,25,01,59,11.00
2012,06,25,02,00,11.00
2012,06,25,02,01,11.00
2012,06,25,02,02,11.00
2012,06,25,02,03,11.00
2012,06,25,02,04,11.00
2012,06,25,02,05,10.90
2012,06,25,02,06,10.90
2012,06,25,02,07,10.90
2012,06,25,02,08,10.90
2012,06,25,02,09,10.90
2012,06,25,02,10,10.90
2012,06,25,02,11,10.90
2012,06,25,02,12,10.90
2012,06,25,02,13,10.80
2012,06,25,02,14,10.80
2012,06,25,02,15,10.80
2012,06,25,02,16,10.80
2012,06,25,02,17,10.80
2012,06,25,02,18,10.80
2012,06,25,02,19,10.80
2012,06,25,02,20,10.80
2012,06,25,02,21,10.80
2012,06,25,02,22,10.80
2012,06,25,02,23,10.80
2012,06,25,02,24,10.80
2012,06,25,02,25,10.80
2012,06,25,02,26,10.80
2012,06,25,02,27,10.80
2012,06,25,02,28,10.80
2012,06,25,02,29,10.80
2012,06,25,02,30,10.80
2012,06,25,02,31,10.80
2012,06,25,02,32,10.80
2012,06,25,02,33,10.80
2012,06,25,02,34,10.80
2012,06,25,02,35,10.80
2012,06,25,02,36,10.80
2012,06,25,02,37,10.80
2012,06,25,02,38,10.80
2012,06,25,02,39,10.80
2012,06,25,02,40,10.80
2012,06,25,02,41,10.80
2012,06,25,02,42,10.80
2012,06,25,02,43,10.80
2012,06,25,02,44,10.80
2012,06,25,02,45,10.80
2012,06,25,02,46,10.80
2012,06,25,02,47,10.80
2012,06,25,02,48,10.80
2012,06,25,02,49,10.80
2012,06,25,02,50,10.80
2012,06,25,02,51,10.80
2012,06,25,02,52,10.80
2012,06,25,02,53,10.80
2012,06,25,02,54,10.80
2012,06,25,02,55,10.80
2012,06,25,02,56,10.80
2012,06,25,02,57,10.80
2012,06,25,02,58,10.80
2012,06,25,02,59,10.80
2012,06,25,03,00,10.80
2012,06,25,03,01,10.80
2012,06,25,03,02,10.80
2012,06,25,03,03,10.80
2012,06,25,03,04,10.80
2012,06,25,03,05,10.80
2012,06,25,03,06,10.80
2012,06,25,03,07,10.80
2012,06,25,03,08,10.80
2012,06,25,03,09,10.80
2012,06,25,03,10,10.80
2012,06,25,03,11,10.80
2012,06,25,03,12,10.80
2012,06,25,03,13,10.70
2012,06,25,03,14,10.70
2012,06,25,03,15,10.70
2012,06,25,03,16,10.70
2012,06,25,03,17,10.70
2012,06,25,03,18,10.70
2012,06,25,03,19,10.70
2012,06,25,03,20,10.70
2012,06,25,03,21,10.70
2012,06,25,03,22,10.70
2012,06,25,03,23,10.60
2012,06,25,03,24,10.60
2012,06,25,03,25,10.60
2012,06,25,03,26,10.60
2012,06,25,03,27,10.60
2012,06,25,03,28,10.60
2012,06,25,03,29,10.60
2012,06,25,03,30,10.60
2012,06,25,03,31,10.60
2012,06,25,03,32,10.60
2012,06,25,03,33,10.60
2012,06,25,03,34,10.60
2012,06,25,03,35,10.60
2012,06,25,03,36,10.60
2012,06,25,03,37,10.60
2012,06,25,03,38,10.60
2012,06,25,03,39,10.60
2012,06,25,03,40,10.60
2012,06,25,03,41,10.60
2012,06,25,03,42,10.60
2012,06,25,03,43,10.60
2012,06,25,03,44,10.60
2012,06,25,03,45,10.60
2012,06,25,03,46,10.60
2012,06,25,03,47,10.60
2012,06,25,03,48,10.60
2012,06,25,03,49,10.60
2012,06,25,03,50,10.50
2012,06,25,03,51,10.50
2012,06,25,03,52,10.50
2012,06,25,03,53,10.50
2012,06,25,03,54,10.50
2012,06,25,03,55,10.40
2012,06,25,03,56,10.40
2012,06,25,03,57,10.40
2012,06,25,03,58,10.40
2012,06,25,03,59,10.40
2012,06,25,04,00,10.40
2012,06,25,04,01,10.40
2012,06,25,04,02,10.40
2012,06,25,04,03,10.40
2012,06,25,04,04,10.30
2012,06,25,04,05,10.30
2012,06,25,04,06,10.30
2012,06,25,04,07,10.30
2012,06,25,04,08,10.30
2012,06,25,04,09,10.30
2012,06,25,04,10,10.30
2012,06,25,04,11,10.30
2012,06,25,04,12,10.30
2012,06,25,04,13,10.20
2012,06,25,04,14,10.20
2012,06,25,04,15,10.20
2012,06,25,04,16,10.20
2012,06,25,04,17,10.20
2012,06,25,04,18,10.20
2012,06,25,04,19,10.10
2012,06,25,04,20,10.10
2012,06,25,04,21,10.10
2012,06,25,04,22,10.10
2012,06,25,04,23,10.10
2012,06,25,04,24,10.10
2012,06,25,04,25,10.10
2012,06,25,04,26,10.10
2012,06,25,04,27,10.10
2012,06,25,04,28,10.00
2012,06,25,04,29,10.00
2012,06,25,04,30,10.00
2012,06,25,04,31,10.00
2012,06,25,04,32,10.00
2012,06,25,04,33,10.00
2012,06,25,04,34,9.90
2012,06,25,04,35,9.90
2012,06,25,04,36,9.90
2012,06,25,04,37,9.90
2012,06,25,04,38,9.90
2012,06,25,04,39,9.90
2012,06,25,04,40,9.90
2012,06,25,04,41,9.90
2012,06,25,04,42,9.90
2012,06,25,04,43,9.90
2012,06,25,04,44,9.90
2012,06,25,04,45,9.80
2012,06,25,04,46,9.80
2012,06,25,04,47,9.80
2012,06,25,04,48,9.80
2012,06,25,04,49,9.80
2012,06,25,04,50,9.80
2012,06,25,04,51,9.80
2012,06,25,04,52,9.70
2012,06,25,04,53,9.70
2012,06,25,04,54,9.70
2012,06,25,04,55,9.70
2012,06,25,04,56,9.70
2012,06,25,04,57,9.60
2012,06,25,04,58,9.60
2012,06,25,04,59,9.60
2012,06,25,05,00,9.60
2012,06,25,05,01,9.60
2012,06,25,05,02,9.60
2012,06,25,05,03,9.60
2012,06,25,05,04,9.60
2012,06,25,05,05,9.60
2012,06,25,05,06,9.60
2012,06,25,05,07,9.60
2012,06,25,05,08,9.60
2012,06,25,05,09,9.60
2012,06,25,05,10,9.60
2012,06,25,05,11,9.60
2012,06,25,05,12,9.60
2012,06,25,05,13,9.60
2012,06,25,05,14,9.50
2012,06,25,05,15,9.50
2012,06,25,05,16,9.50
2012,06,25,05,17,9.50
2012,06,25,05,18,9.50
2012,06,25,05,19,9.50
2012,06,25,05,20,9.50
2012,06,25,05,21,9.50
2012,06,25,05,22,9.50
2012,06,25,05,23,9.50
2012,06,25,05,24,9.50
2012,06,25,05,25,9.50
2012,06,25,05,26,9.50
2012,06,25,05,27,9.50
2012,06,25,05,28,9.50
2012,06,25,05,29,9.50
2012,06,25,05,30,9.50
2012,06,25,05,31,9.50
2012,06,25,05,32,9.50
2012,06,25,05,33,9.50
2012,06,25,05,34,9.50
2012,06,25,05,35,9.50
2012,06,25,05,36,9.50
2012,06,25,05,37,9.50
2012,06,25,05,38,9.50
2012,06,25,05,39,9.50
2012,06,25,05,40,9.50
2012,06,25,05,41,9.50
2012,06,25,05,42,9.50
2012,06,25,05,43,9.50
2012,06,25,05,44,9.50
2012,06,25,05,45,9.50
2012,06,25,05,46,9.50
2012,06,25,05,47,9.60
2012,06,25,05,48,9.60
2012,06,25,05,49,9.60
2012,06,25,05,50,9.60
2012,06,25,05,51,9.60
2012,06,25,05,52,9.70
2012,06,25,05,53,9.70
2012,06,25,05,54,9.70
2012,06,25,05,55,9.70
2012,06,25,05,56,9.70
2012,06,25,05,57,9.70
2012,06,25,05,58,9.70
2012,06,25,05,59,9.70
2012,06,25,06,00,9.80
2012,06,25,06,01,9.80
2012,06,25,06,02,9.80
2012,06,25,06,03,9.80
2012,06,25,06,04,9.80
2012,06,25,06,05,9.80
2012,06,25,06,06,9.80
2012,06,25,06,07,9.80
2012,06,25,06,08,9.80
2012,06,25,06,09,9.80
2012,06,25,06,10,9.80
2012,06,25,06,11,9.80
2012,06,25,06,12,9.80
2012,06,25,06,13,9.80
2012,06,25,06,14,9.80
2012,06,25,06,15,9.80
2012,06,25,06,16,9.80
2012,06,25,06,17,9.80
2012,06,25,06,18,9.80
2012,06,25,06,19,9.90
2012,06,25,06,20,9.90
2012,06,25,06,21,9.90
2012,06,25,06,22,9.90
2012,06,25,06,23,9.90
2012,06,25,06,24,9.90
2012,06,25,06,25,9.90
2012,06,25,06,26,9.90
2012,06,25,06,27,9.90
2012,06,25,06,28,9.90
2012,06,25,06,29,9.90
2012,06,25,06,30,9.90
2012,06,25,06,31,9.90
2012,06,25,06,32,9.90
2012,06,25,06,33,9.90
2012,06,25,06,34,9.90
2012,06,25,06,35,9.90
2012,06,25,06,36,9.90
2012,06,25,06,37,9.90
2012,06,25,06,38,9.90
2012,06,25,06,39,9.90
2012,06,25,06,40,10.00
2012,06,25,06,41,10.00
2012,06,25,06,42,10.00
2012,06,25,06,43,10.00
2012,06,25,06,44,10.10
2012,06,25,06,45,10.10
2012,06,25,06,46,10.10
2012,06,25,06,47,10.20
2012,06,25,06,48,10.20
2012,06,25,06,49,10.20
2012,06,25,06,50,10.20
2012,06,25,06,51,10.30
2012,06,25,06,52,10.30
2012,06,25,06,53,10.30
2012,06,25,06,54,10.30
2012,06,25,06,55,10.30
2012,06,25,06,56,10.40
2012,06,25,06,57,10.40
2012,06,25,06,58,10.40
2012,06,25,06,59,10.40
2012,06,25,07,00,10.40
2012,06,25,07,01,10.40
2012,06,25,07,02,10.40
2012,06,25,07,03,10.50
2012,06,25,07,04,10.50
2012,06,25,07,05,10.50
2012,06,25,07,06,10.50
2012,06,25,07,07,10.50
2012,06,25,07,08,10.50
2012,06,25,07,09,10.50
2012,06,25,07,10,10.50
2012,06,25,07,11,10.50
2012,06,25,07,12,10.50
2012,06,25,07,13,10.60
2012,06,25,07,14,10.60
2012,06,25,07,15,10.60
2012,06,25,07,16,10.60
2012,06,25,07,17,10.60
2012,06,25,07,18,10.70
2012,06,25,07,19,10.70
2012,06,25,07,20,10.70
2012,06,25,07,21,10.70
2012,06,25,07,22,10.80
2012,06,25,07,23,10.80
2012,06,25,07,24,10.80
2012,06,25,07,25,10.80
2012,06,25,07,26,10.90
2012,06,25,07,27,10.90
2012,06,25,07,28,10.90
2012,06,25,07,29,10.90
2012,06,25,07,30,11.00
2012,06,25,07,31,11.00
2012,06,25,07,32,11.00
2012,06,25,07,33,11.10
2012,06,25,07,34,11.10
2012,06,25,07,35,11.10
2012,06,25,07,36,11.10
2012,06,25,07,37,11.10
2012,06,25,07,38,11.20
2012,06,25,07,39,11.20
2012,06,25,07,40,11.20
2012,06,25,07,41,11.20
2012,06,25,07,42,11.30
2012,06,25,07,43,11.30
2012,06,25,07,44,11.30
2012,06,25,07,45,11.30
2012,06,25,07,46,11.20
2012,06,25,07,47,11.20
2012,06,25,07,48,11.10
2012,06,25,07,49,11.10
2012,06,25,07,50,11.10
2012,06,25,07,51,11.10
2012,06,25,07,52,11.10
2012,06,25,07,53,11.10
2012,06,25,07,54,11.10
2012,06,25,07,55,11.20
2012,06,25,07,56,11.20
2012,06,25,07,57,11.20
2012,06,25,07,58,11.20
2012,06,25,07,59,11.30
2012,06,25,08,00,11.30
2012,06,25,08,01,11.30
2012,06,25,08,02,11.30
2012,06,25,08,03,11.40
2012,06,25,08,04,11.40
2012,06,25,08,05,11.40
2012,06,25,08,06,11.50
2012,06,25,08,07,11.50
2012,06,25,08,08,11.60
2012,06,25,08,09,11.60
2012,06,25,08,10,11.60
2012,06,25,08,11,11.70
2012,06,25,08,12,11.70
2012,06,25,08,13,11.80
2012,06,25,08,14,11.90
2012,06,25,08,15,11.90
2012,06,25,08,16,11.90
2012,06,25,08,17,11.90
2012,06,25,08,18,12.00
2012,06,25,08,19,12.00
2012,06,25,08,20,12.00
2012,06,25,08,21,12.10
2012,06,25,08,22,12.10
2012,06,25,08,23,12.10
2012,06,25,08,24,12.10
2012,06,25,08,25,12.10
2012,06,25,08,26,12.10
2012,06,25,08,27,12.10
2012,06,25,08,28,12.20
2012,06,25,08,29,12.30
2012,06,25,08,30,12.30
2012,06,25,08,31,12.40
2012,06,25,08,32,12.50
2012,06,25,08,33,12.50
2012,06,25,08,34,12.60
2012,06,25,08,35,12.70
2012,06,25,08,36,12.70
2012,06,25,08,37,12.70
2012,06,25,08,38,12.70
2012,06,25,08,39,12.70
2012,06,25,08,40,12.60
2012,06,25,08,41,12.60
2012,06,25,08,42,12.60
2012,06,25,08,43,12.60
2012,06,25,08,44,12.60
2012,06,25,08,45,12.60
2012,06,25,08,46,12.60
2012,06,25,08,47,12.50
2012,06,25,08,48,12.50
2012,06,25,08,49,12.50
2012,06,25,08,50,12.50
2012,06,25,08,51,12.50
2012,06,25,08,52,12.60
2012,06,25,08,53,12.60
2012,06,25,08,54,12.60
2012,06,25,08,55,12.60
2012,06,25,08,56,12.60
2012,06,25,08,57,12.60
2012,06,25,08,58,12.60
2012,06,25,08,59,12.60
2012,06,25,09,00,12.70
2012,06,25,09,01,12.70
2012,06,25,09,02,12.80
2012,06,25,09,03,12.90
2012,06,25,09,04,13.00
2012,06,25,09,05,13.20
2012,06,25,09,06,13.30
2012,06,25,09,07,13.50
2012,06,25,09,08,13.60
2012,06,25,09,09,13.70
2012,06,25,09,10,13.70
2012,06,25,09,11,13.80
2012,06,25,09,12,13.80
2012,06,25,09,13,13.80
2012,06,25,09,14,13.80
2012,06,25,09,15,13.80
2012,06,25,09,16,13.80
2012,06,25,09,17,13.80
2012,06,25,09,18,13.80
2012,06,25,09,19,13.90
2012,06,25,09,20,13.90
2012,06,25,09,21,13.90
2012,06,25,09,22,13.90
2012,06,25,09,23,13.80
2012,06,25,09,24,13.70
2012,06,25,09,25,13.60
2012,06,25,09,26,13.50
2012,06,25,09,27,13.40
2012,06,25,09,28,13.40
2012,06,25,09,29,13.30
2012,06,25,09,30,13.30
2012,06,25,09,31,13.30
2012,06,25,09,32,13.30
2012,06,25,09,33,13.30
2012,06,25,09,34,13.30
2012,06,25,09,35,13.20
2012,06,25,09,36,13.20
2012,06,25,09,37,13.20
2012,06,25,09,38,13.20
2012,06,25,09,39,13.20
2012,06,25,09,40,13.20
2012,06,25,09,41,13.20
2012,06,25,09,42,13.20
2012,06,25,09,43,13.20
2012,06,25,09,44,13.20
2012,06,25,09,45,13.30
2012,06,25,09,46,13.20
2012,06,25,09,47,13.30
2012,06,25,09,48,13.30
2012,06,25,09,49,13.30
2012,06,25,09,50,13.40
2012,06,25,09,51,13.50
2012,06,25,09,52,13.60
2012,06,25,09,53,13.70
2012,06,25,09,54,13.70
2012,06,25,09,55,13.80
2012,06,25,09,56,13.80
2012,06,25,09,57,13.80
2012,06,25,09,58,13.90
2012,06,25,09,59,14.00
2012,06,25,10,00,14.20
2012,06,25,10,01,14.30
2012,06,25,10,02,14.40
2012,06,25,10,03,14.50
2012,06,25,10,04,14.50
2012,06,25,10,05,14.50
2012,06,25,10,06,14.50
2012,06,25,10,07,14.60
2012,06,25,10,08,14.60
2012,06,25,10,09,14.60
2012,06,25,10,10,14.70
2012,06,25,10,11,14.70
2012,06,25,10,12,14.80
2012,06,25,10,13,14.90
2012,06,25,10,14,15.00
2012,06,25,10,15,15.00
2012,06,25,10,16,15.00
2012,06,25,10,17,15.00
2012,06,25,10,18,15.00
2012,06,25,10,19,14.90
2012,06,25,10,20,14.90
2012,06,25,10,21,14.80
2012,06,25,10,22,14.80
2012,06,25,10,23,14.90
2012,06,25,10,24,15.00
2012,06,25,10,25,15.10
2012,06,25,10,26,15.20
2012,06,25,10,27,15.20
2012,06,25,10,28,15.10
2012,06,25,10,29,15.10
2012,06,25,10,30,15.10
2012,06,25,10,31,15.10
2012,06,25,10,32,15.20
2012,06,25,10,33,15.30
2012,06,25,10,34,15.30
2012,06,25,10,35,15.30
2012,06,25,10,36,15.40
2012,06,25,10,37,15.40
2012,06,25,10,38,15.50
2012,06,25,10,39,15.40
2012,06,25,10,40,15.50
2012,06,25,10,41,15.50
2012,06,25,10,42,15.50
2012,06,25,10,43,15.50
2012,06,25,10,44,15.50
2012,06,25,10,45,15.50
2012,06,25,10,46,15.50
2012,06,25,10,47,15.60
2012,06,25,10,48,15.60
2012,06,25,10,49,15.60
2012,06,25,10,50,15.60
2012,06,25,10,51,15.60
2012,06,25,10,52,15.60
2012,06,25,10,53,15.60
2012,06,25,10,54,15.50
2012,06,25,10,55,15.50
2012,06,25,10,56,15.50
2012,06,25,10,57,15.50
2012,06,25,10,58,15.50
2012,06,25,10,59,15.50
2012,06,25,11,00,15.60
2012,06,25,11,01,15.60
2012,06,25,11,02,15.70
2012,06,25,11,03,15.80
2012,06,25,11,04,15.90
2012,06,25,11,05,16.00
2012,06,25,11,06,16.10
2012,06,25,11,07,16.20
2012,06,25,11,08,16.20
2012,06,25,11,09,16.30
2012,06,25,11,10,16.30
2012,06,25,11,11,16.30
2012,06,25,11,12,16.40
2012,06,25,11,13,16.40
2012,06,25,11,14,16.50
2012,06,25,11,15,16.60
2012,06,25,11,16,16.70
2012,06,25,11,17,16.70
2012,06,25,11,18,16.80
2012,06,25,11,19,17.00
2012,06,25,11,20,17.10
2012,06,25,11,21,17.30
2012,06,25,11,22,17.40
2012,06,25,11,23,17.50
2012,06,25,11,24,17.50
2012,06,25,11,25,17.50
2012,06,25,11,26,17.40
2012,06,25,11,27,17.30
2012,06,25,11,28,17.20
2012,06,25,11,29,17.10
2012,06,25,11,30,17.00
2012,06,25,11,31,17.00
2012,06,25,11,32,17.00
2012,06,25,11,33,17.10
2012,06,25,11,34,17.10
2012,06,25,11,35,17.10
2012,06,25,11,36,17.20
2012,06,25,11,37,17.20
2012,06,25,11,38,17.20
2012,06,25,11,39,17.30
2012,06,25,11,40,17.40
2012,06,25,11,41,17.50
2012,06,25,11,42,17.70
2012,06,25,11,43,17.80
2012,06,25,11,44,17.80
2012,06,25,11,45,17.80
2012,06,25,11,46,17.80
2012,06,25,11,47,17.80
2012,06,25,11,48,17.80
2012,06,25,11,49,17.90
2012,06,25,11,50,17.90
2012,06,25,11,51,18.00
2012,06,25,11,52,18.10
2012,06,25,11,53,18.20
2012,06,25,11,54,18.30
2012,06,25,11,55,18.50
2012,06,25,11,56,18.60
2012,06,25,11,57,18.70
2012,06,25,11,58,18.80
2012,06,25,11,59,18.80
2012,06,25,12,00,18.80
2012,06,25,12,01,18.70
2012,06,25,12,02,18.60
2012,06,25,12,03,18.60
2012,06,25,12,04,18.50
2012,06,25,12,05,18.40
2012,06,25,12,06,18.40
2012,06,25,12,07,18.50
2012,06,25,12,08,18.40
2012,06,25,12,09,18.40
2012,06,25,12,10,18.40
2012,06,25,12,11,18.30
2012,06,25,12,12,18.30
2012,06,25,12,13,18.40
2012,06,25,12,14,18.40
2012,06,25,12,15,18.50
2012,06,25,12,16,18.60
2012,06,25,12,17,18.70
2012,06,25,12,18,18.80
2012,06,25,12,19,19.00
2012,06,25,12,20,19.00
2012,06,25,12,21,19.00
2012,06,25,12,22,18.90
2012,06,25,12,23,19.00
2012,06,25,12,24,19.10
2012,06,25,12,25,19.30
2012,06,25,12,26,19.30
2012,06,25,12,27,19.40
2012,06,25,12,28,19.40
2012,06,25,12,29,19.50
2012,06,25,12,30,19.70
2012,06,25,12,31,19.80
2012,06,25,12,32,19.90
2012,06,25,12,33,20.10
2012,06,25,12,34,20.20
2012,06,25,12,35,20.30
2012,06,25,12,36,20.30
2012,06,25,12,37,20.30
2012,06,25,12,38,20.30
2012,06,25,12,39,20.30
2012,06,25,12,40,20.30
2012,06,25,12,41,20.40
2012,06,25,12,42,20.50
2012,06,25,12,43,20.60
2012,06,25,12,44,20.60
2012,06,25,12,45,20.40
2012,06,25,12,46,20.30
2012,06,25,12,47,20.30
2012,06,25,12,48,20.30
2012,06,25,12,49,20.20
2012,06,25,12,50,20.10
2012,06,25,12,51,20.00
2012,06,25,12,52,19.90
2012,06,25,12,53,19.90
2012,06,25,12,54,19.90
2012,06,25,12,55,19.90
2012,06,25,12,56,20.00
2012,06,25,12,57,20.10
2012,06,25,12,58,20.20
2012,06,25,12,59,20.30
2012,06,25,13,00,20.50
2012,06,25,13,01,20.60
2012,06,25,13,02,20.70
2012,06,25,13,03,20.80
2012,06,25,13,04,20.90
2012,06,25,13,05,20.90
2012,06,25,13,06,21.00
2012,06,25,13,07,21.10
2012,06,25,13,08,21.10
2012,06,25,13,09,21.00
2012,06,25,13,10,20.90
2012,06,25,13,11,20.80
2012,06,25,13,12,20.80
2012,06,25,13,13,20.80
2012,06,25,13,14,20.70
2012,06,25,13,15,20.80
2012,06,25,13,16,20.90
2012,06,25,13,17,21.00
2012,06,25,13,18,21.10
2012,06,25,13,19,21.20
2012,06,25,13,20,21.20
2012,06,25,13,21,21.20
2012,06,25,13,22,21.20
2012,06,25,13,23,21.10
2012,06,25,13,24,21.10
2012,06,25,13,25,21.00
2012,06,25,13,26,20.90
2012,06,25,13,27,20.80
2012,06,25,13,28,20.70
2012,06,25,13,29,20.70
2012,06,25,13,30,20.70
2012,06,25,13,31,20.70
2012,06,25,13,32,20.70
2012,06,25,13,33,20.70
2012,06,25,13,34,20.70
2012,06,25,13,35,20.70
2012,06,25,13,36,20.70
2012,06,25,13,37,20.70
2012,06,25,13,38,20.70
2012,06,25,13,39,20.70
2012,06,25,13,40,20.70
2012,06,25,13,41,20.70
2012,06,25,13,42,20.70
2012,06,25,13,43,20.70
2012,06,25,13,44,20.80
2012,06,25,13,45,20.80
2012,06,25,13,46,20.80
2012,06,25,13,47,20.80
2012,06,25,13,48,20.80
2012,06,25,13,49,20.80
2012,06,25,13,50,20.90
2012,06,25,13,51,21.00
2012,06,25,13,52,21.10
2012,06,25,13,53,21.20
2012,06,25,13,54,21.20
2012,06,25,13,55,21.10
2012,06,25,13,56,21.10
2012,06,25,13,57,21.10
2012,06,25,13,58,21.10
2012,06,25,13,59,21.10
2012,06,25,14,00,21.10
2012,06,25,14,01,21.10
2012,06,25,14,02,21.10
2012,06,25,14,03,21.10
2012,06,25,14,04,21.10
2012,06,25,14,05,21.30
2012,06,25,14,06,21.40
2012,06,25,14,07,21.60
2012,06,25,14,08,21.70
2012,06,25,14,09,21.80
2012,06,25,14,10,22.00
2012,06,25,14,11,22.10
2012,06,25,14,12,22.20
2012,06,25,14,13,22.20
2012,06,25,14,14,22.20
2012,06,25,14,15,22.20
2012,06,25,14,16,22.10
2012,06,25,14,17,22.00
2012,06,25,14,18,21.90
2012,06,25,14,19,21.90
2012,06,25,14,20,21.80
2012,06,25,14,21,21.90
2012,06,25,14,22,21.90
2012,06,25,14,23,22.00
2012,06,25,14,24,22.10
2012,06,25,14,25,22.10
2012,06,25,14,26,22.10
2012,06,25,14,27,22.00
2012,06,25,14,28,22.00
2012,06,25,14,29,22.00
2012,06,25,14,30,22.10
2012,06,25,14,31,22.20
2012,06,25,14,32,22.40
2012,06,25,14,33,22.50
2012,06,25,14,34,22.70
2012,06,25,14,35,22.70
2012,06,25,14,36,22.70
2012,06,25,14,37,22.70
2012,06,25,14,38,22.70
2012,06,25,14,39,22.60
2012,06,25,14,40,22.50
2012,06,25,14,41,22.50
2012,06,25,14,42,22.40
2012,06,25,14,43,22.40
2012,06,25,14,44,22.50
2012,06,25,14,45,22.50
2012,06,25,14,46,22.60
2012,06,25,14,47,22.60
2012,06,25,14,48,22.60
2012,06,25,14,49,22.60
2012,06,25,14,50,22.60
2012,06,25,14,51,22.60
2012,06,25,14,52,22.50
2012,06,25,14,53,22.50
2012,06,25,14,54,22.50
2012,06,25,14,55,22.50
2012,06,25,14,56,22.50
2012,06,25,14,57,22.30
2012,06,25,14,58,22.20
2012,06,25,14,59,22.10
2012,06,25,15,00,22.10
2012,06,25,15,01,22.00
2012,06,25,15,02,21.90
2012,06,25,15,03,21.80
2012,06,25,15,04,21.80
2012,06,25,15,05,21.70
2012,06,25,15,06,21.70
2012,06,25,15,07,21.70
2012,06,25,15,08,21.70
2012,06,25,15,09,21.80
2012,06,25,15,10,21.90
2012,06,25,15,11,22.00
2012,06,25,15,12,22.20
2012,06,25,15,13,22.30
2012,06,25,15,14,22.50
2012,06,25,15,15,22.60
2012,06,25,15,16,22.70
2012,06,25,15,17,22.90
2012,06,25,15,18,23.00
2012,06,25,15,19,23.10
2012,06,25,15,20,23.20
2012,06,25,15,21,23.10
2012,06,25,15,22,23.20
2012,06,25,15,23,23.20
2012,06,25,15,24,23.20
2012,06,25,15,25,23.20
2012,06,25,15,26,23.20
2012,06,25,15,27,23.30
2012,06,25,15,28,23.30
2012,06,25,15,29,23.30
2012,06,25,15,30,23.30
2012,06,25,15,31,23.40
2012,06,25,15,32,23.40
2012,06,25,15,33,23.50
2012,06,25,15,34,23.40
2012,06,25,15,35,23.40
2012,06,25,15,36,23.30
2012,06,25,15,37,23.10
2012,06,25,15,38,22.90
2012,06,25,15,39,22.70
2012,06,25,15,40,22.60
2012,06,25,15,41,22.60
2012,06,25,15,42,22.60
2012,06,25,15,43,22.60
2012,06,25,15,44,22.50
2012,06,25,15,45,22.50
2012,06,25,15,46,22.40
2012,06,25,15,47,22.40
2012,06,25,15,48,22.40
2012,06,25,15,49,22.30
2012,06,25,15,50,22.30
2012,06,25,15,51,22.30
2012,06,25,15,52,22.20
2012,06,25,15,53,22.30
2012,06,25,15,54,22.30
2012,06,25,15,55,22.30
2012,06,25,15,56,22.30
2012,06,25,15,57,22.30
2012,06,25,15,58,22.30
2012,06,25,15,59,22.30
2012,06,25,16,00,22.30
2012,06,25,16,01,22.30
2012,06,25,16,02,22.30
2012,06,25,16,03,22.30
2012,06,25,16,04,22.20
2012,06,25,16,05,22.20
2012,06,25,16,06,22.20
2012,06,25,16,07,22.30
2012,06,25,16,08,22.30
2012,06,25,16,09,22.30
2012,06,25,16,10,22.20
2012,06,25,16,11,22.10
2012,06,25,16,12,22.10
2012,06,25,16,13,22.10
2012,06,25,16,14,22.10
2012,06,25,16,15,22.00
2012,06,25,16,16,21.90
2012,06,25,16,17,21.70
2012,06,25,16,18,21.60
2012,06,25,16,19,21.40
2012,06,25,16,20,21.30
2012,06,25,16,21,21.20
2012,06,25,16,22,21.10
2012,06,25,16,23,21.10
2012,06,25,16,24,21.10
2012,06,25,16,25,21.10
2012,06,25,16,26,21.10
2012,06,25,16,27,21.10
2012,06,25,16,28,21.10
2012,06,25,16,29,21.10
2012,06,25,16,30,21.00
2012,06,25,16,31,21.00
2012,06,25,16,32,20.90
2012,06,25,16,33,20.80
2012,06,25,16,34,20.80
2012,06,25,16,35,20.80
2012,06,25,16,36,20.80
2012,06,25,16,37,20.80
2012,06,25,16,38,20.80
2012,06,25,16,39,20.90
2012,06,25,16,40,20.90
2012,06,25,16,41,20.90
2012,06,25,16,42,21.00
2012,06,25,16,43,21.00
2012,06,25,16,44,21.10
2012,06,25,16,45,21.20
2012,06,25,16,46,21.20
2012,06,25,16,47,21.30
2012,06,25,16,48,21.30
2012,06,25,16,49,21.20
2012,06,25,16,50,21.20
2012,06,25,16,51,21.30
2012,06,25,16,52,21.30
2012,06,25,16,53,21.30
2012,06,25,16,54,21.30
2012,06,25,16,55,21.30
2012,06,25,16,56,21.30
2012,06,25,16,57,21.30
2012,06,25,16,58,21.20
2012,06,25,16,59,21.10
2012,06,25,17,00,21.00
2012,06,25,17,01,20.90
2012,06,25,17,02,20.90
2012,06,25,17,03,20.80
2012,06,25,17,04,20.80
2012,06,25,17,05,20.90
2012,06,25,17,06,20.90
2012,06,25,17,07,20.90
2012,06,25,17,08,21.00
2012,06,25,17,09,21.10
2012,06,25,17,10,21.00
2012,06,25,17,11,20.90
2012,06,25,17,12,20.90
2012,06,25,17,13,20.90
2012,06,25,17,14,20.80
2012,06,25,17,15,20.70
2012,06,25,17,16,20.50
2012,06,25,17,17,20.40
2012,06,25,17,18,20.30
2012,06,25,17,19,20.30
2012,06,25,17,20,20.20
2012,06,25,17,21,20.20
2012,06,25,17,22,20.20
2012,06,25,17,23,20.20
2012,06,25,17,24,20.20